owner,sensor,date,latitude,longitude,vertical_datum,sea_water_practical_salinity,qcFlag 
ENP,ioos.station.NOAA.NDBC:BOBF1:1,2019-06-01T00:00:00Z,25.0270,-80.6810,1.5,41.26,11111222 
ENP,ioos.station.NOAA.NDBC:BOBF1:1,2019-06-01T01:00:00Z,25.0270,-80.6810,1.5,41.07,11111222 
ENP,ioos.station.NOAA.NDBC:BOBF1:1,2019-06-01T02:00:00Z,25.0270,-80.6810,1.5,40.58,11111222 
ENP,ioos.station.NOAA.NDBC:BOBF1:1,2019-06-01T04:00:00Z,25.0270,-80.6810,1.5,40.34,11111222 
ENP,ioos.station.NOAA.NDBC:BOBF1:1,2019-06-01T05:00:00Z,25.0270,-80.6810,1.5,40.41,11111222 
ENP,ioos.station.NOAA.NDBC:BOBF1:1,2019-06-01T06:00:00Z,25.0270,-80.6810,1.5,40.49,11111222 
ENP,ioos.station.NOAA.NDBC:BOBF1:1,2019-06-01T07:00:00Z,25.0270,-80.6810,1.5,40.55,11111222 
ENP,ioos.station.NOAA.NDBC:BOBF1:1,2019-06-01T08:00:00Z,25.0270,-80.6810,1.5,40.96,11111222 
ENP,ioos.station.NOAA.NDBC:BOBF1:1,2019-06-01T09:00:00Z,25.0270,-80.6810,1.5,41.18,11111222 
ENP,ioos.station.NOAA.NDBC:BOBF1:1,2019-06-01T10:00:00Z,25.0270,-80.6810,1.5,41.2,11111222 
ENP,ioos.station.NOAA.NDBC:BOBF1:1,2019-06-01T11:00:00Z,25.0270,-80.6810,1.5,40.55,11111222 
ENP,ioos.station.NOAA.NDBC:BOBF1:1,2019-06-01T12:00:00Z,25.0270,-80.6810,1.5,40.39,11111222 
ENP,ioos.station.NOAA.NDBC:BOBF1:1,2019-06-01T13:00:00Z,25.0270,-80.6810,1.5,40.45,11111222 
ENP,ioos.station.NOAA.NDBC:BOBF1:1,2019-06-01T15:00:00Z,25.0270,-80.6810,1.5,40.64,11111222 
ENP,ioos.station.NOAA.NDBC:BOBF1:1,2019-06-01T16:00:00Z,25.0270,-80.6810,1.5,40.7,11111222 
ENP,ioos.station.NOAA.NDBC:BOBF1:1,2019-06-01T17:00:00Z,25.0270,-80.6810,1.5,40.61,11111222 
ENP,ioos.station.NOAA.NDBC:BOBF1:1,2019-06-01T18:00:00Z,25.0270,-80.6810,1.5,40.64,11111222 
ENP,ioos.station.NOAA.NDBC:BOBF1:1,2019-06-01T19:00:00Z,25.0270,-80.6810,1.5,40.57,11111222 
ENP,ioos.station.NOAA.NDBC:BOBF1:1,2019-06-01T20:00:00Z,25.0270,-80.6810,1.5,40.55,11111222 
ENP,ioos.station.NOAA.NDBC:BOBF1:1,2019-06-01T21:00:00Z,25.0270,-80.6810,1.5,40.54,11111222 
ENP,ioos.station.NOAA.NDBC:BOBF1:1,2019-06-01T22:00:00Z,25.0270,-80.6810,1.5,40.61,11111222 
ENP,ioos.station.NOAA.NDBC:BOBF1:1,2019-06-01T23:00:00Z,25.0270,-80.6810,1.5,40.74,11111222 
ENP,ioos.station.NOAA.NDBC:BOBF1:1,2019-06-02T00:00:00Z,25.0270,-80.6810,1.5,40.8,11111222 
ENP,ioos.station.NOAA.NDBC:BOBF1:1,2019-06-02T01:00:00Z,25.0270,-80.6810,1.5,40.33,11111222 
ENP,ioos.station.NOAA.NDBC:BOBF1:1,2019-06-02T02:00:00Z,25.0270,-80.6810,1.5,40.42,11111222 
ENP,ioos.station.NOAA.NDBC:BOBF1:1,2019-06-02T04:00:00Z,25.0270,-80.6810,1.5,40.48,11111222 
ENP,ioos.station.NOAA.NDBC:BOBF1:1,2019-06-02T05:00:00Z,25.0270,-80.6810,1.5,40.47,11111222 
ENP,ioos.station.NOAA.NDBC:BOBF1:1,2019-06-02T06:00:00Z,25.0270,-80.6810,1.5,40.5,11111222 
ENP,ioos.station.NOAA.NDBC:BOBF1:1,2019-06-02T07:00:00Z,25.0270,-80.6810,1.5,40.57,11111222 
ENP,ioos.station.NOAA.NDBC:BOBF1:1,2019-06-02T08:00:00Z,25.0270,-80.6810,1.5,40.67,11111222 
ENP,ioos.station.NOAA.NDBC:BOBF1:1,2019-06-02T09:00:00Z,25.0270,-80.6810,1.5,41.06,11111222 
ENP,ioos.station.NOAA.NDBC:BOBF1:1,2019-06-02T10:00:00Z,25.0270,-80.6810,1.5,41.01,11111222 
ENP,ioos.station.NOAA.NDBC:BOBF1:1,2019-06-02T11:00:00Z,25.0270,-80.6810,1.5,40.81,11111222 
ENP,ioos.station.NOAA.NDBC:BOBF1:1,2019-06-02T12:00:00Z,25.0270,-80.6810,1.5,40.65,11111222 
ENP,ioos.station.NOAA.NDBC:BOBF1:1,2019-06-02T13:00:00Z,25.0270,-80.6810,1.5,40.55,11111222 
ENP,ioos.station.NOAA.NDBC:BOBF1:1,2019-06-02T14:00:00Z,25.0270,-80.6810,1.5,40.48,11111222 
ENP,ioos.station.NOAA.NDBC:BOBF1:1,2019-06-02T15:00:00Z,25.0270,-80.6810,1.5,40.41,11111222 
ENP,ioos.station.NOAA.NDBC:BOBF1:1,2019-06-02T16:00:00Z,25.0270,-80.6810,1.5,40.08,11111222 
ENP,ioos.station.NOAA.NDBC:BOBF1:1,2019-06-02T18:00:00Z,25.0270,-80.6810,1.5,39.95,11111222 
ENP,ioos.station.NOAA.NDBC:BOBF1:1,2019-06-02T19:00:00Z,25.0270,-80.6810,1.5,39.99,11111222 
ENP,ioos.station.NOAA.NDBC:BOBF1:1,2019-06-02T20:00:00Z,25.0270,-80.6810,1.5,40.27,11111222 
ENP,ioos.station.NOAA.NDBC:BOBF1:1,2019-06-02T21:00:00Z,25.0270,-80.6810,1.5,40.86,11111222 
ENP,ioos.station.NOAA.NDBC:BOBF1:1,2019-06-02T22:00:00Z,25.0270,-80.6810,1.5,41.2,11111222 
ENP,ioos.station.NOAA.NDBC:BOBF1:1,2019-06-02T23:00:00Z,25.0270,-80.6810,1.5,41.24,11111222 
ENP,ioos.station.NOAA.NDBC:BOBF1:1,2019-06-03T00:00:00Z,25.0270,-80.6810,1.5,41.26,11111222 
ENP,ioos.station.NOAA.NDBC:BOBF1:1,2019-06-03T02:00:00Z,25.0270,-80.6810,1.5,41.17,11111222 
ENP,ioos.station.NOAA.NDBC:BOBF1:1,2019-06-03T04:00:00Z,25.0270,-80.6810,1.5,40.39,11111222 
ENP,ioos.station.NOAA.NDBC:BOBF1:1,2019-06-03T05:00:00Z,25.0270,-80.6810,1.5,40.21,11111222 
ENP,ioos.station.NOAA.NDBC:BOBF1:1,2019-06-03T06:00:00Z,25.0270,-80.6810,1.5,40.21,11111222 
ENP,ioos.station.NOAA.NDBC:BOBF1:1,2019-06-03T07:00:00Z,25.0270,-80.6810,1.5,40.32,11111222 
ENP,ioos.station.NOAA.NDBC:BOBF1:1,2019-06-03T08:00:00Z,25.0270,-80.6810,1.5,41.14,11111222 
ENP,ioos.station.NOAA.NDBC:BOBF1:1,2019-06-03T09:00:00Z,25.0270,-80.6810,1.5,41.37,11111222 
ENP,ioos.station.NOAA.NDBC:BOBF1:1,2019-06-03T10:00:00Z,25.0270,-80.6810,1.5,41.41,11111222 
ENP,ioos.station.NOAA.NDBC:BOBF1:1,2019-06-03T11:00:00Z,25.0270,-80.6810,1.5,41.01,11111222 
ENP,ioos.station.NOAA.NDBC:BOBF1:1,2019-06-03T12:00:00Z,25.0270,-80.6810,1.5,40.64,11111222 
ENP,ioos.station.NOAA.NDBC:BOBF1:1,2019-06-03T13:00:00Z,25.0270,-80.6810,1.5,40.71,11111222 
ENP,ioos.station.NOAA.NDBC:BOBF1:1,2019-06-03T14:00:00Z,25.0270,-80.6810,1.5,40.79,11111222 
ENP,ioos.station.NOAA.NDBC:BOBF1:1,2019-06-03T15:00:00Z,25.0270,-80.6810,1.5,40.58,11111222 
ENP,ioos.station.NOAA.NDBC:BOBF1:1,2019-06-03T16:00:00Z,25.0270,-80.6810,1.5,41.13,11111222 
ENP,ioos.station.NOAA.NDBC:BOBF1:1,2019-06-03T17:00:00Z,25.0270,-80.6810,1.5,40.49,11111222 
ENP,ioos.station.NOAA.NDBC:BOBF1:1,2019-06-03T18:00:00Z,25.0270,-80.6810,1.5,40.3,11111222 
ENP,ioos.station.NOAA.NDBC:BOBF1:1,2019-06-03T19:00:00Z,25.0270,-80.6810,1.5,40.83,11111222 
ENP,ioos.station.NOAA.NDBC:BOBF1:1,2019-06-03T20:00:00Z,25.0270,-80.6810,1.5,41.1,11111222 
ENP,ioos.station.NOAA.NDBC:BOBF1:1,2019-06-03T21:00:00Z,25.0270,-80.6810,1.5,41.42,11111222 
ENP,ioos.station.NOAA.NDBC:BOBF1:1,2019-06-03T22:00:00Z,25.0270,-80.6810,1.5,41.72,11111222 
ENP,ioos.station.NOAA.NDBC:BOBF1:1,2019-06-03T23:00:00Z,25.0270,-80.6810,1.5,41.74,11111222 
ENP,ioos.station.NOAA.NDBC:BOBF1:1,2019-06-04T00:00:00Z,25.0270,-80.6810,1.5,41.63,11111222 
ENP,ioos.station.NOAA.NDBC:BOBF1:1,2019-06-04T02:00:00Z,25.0270,-80.6810,1.5,42.15,11111222 
ENP,ioos.station.NOAA.NDBC:BOBF1:1,2019-06-04T04:00:00Z,25.0270,-80.6810,1.5,41.77,11111222 
ENP,ioos.station.NOAA.NDBC:BOBF1:1,2019-06-04T05:00:00Z,25.0270,-80.6810,1.5,41.69,11111222 
ENP,ioos.station.NOAA.NDBC:BOBF1:1,2019-06-04T06:00:00Z,25.0270,-80.6810,1.5,40.98,11111222 
ENP,ioos.station.NOAA.NDBC:BOBF1:1,2019-06-04T07:00:00Z,25.0270,-80.6810,1.5,41.42,11111222 
ENP,ioos.station.NOAA.NDBC:BOBF1:1,2019-06-04T08:00:00Z,25.0270,-80.6810,1.5,41.78,11111222 
ENP,ioos.station.NOAA.NDBC:BOBF1:1,2019-06-04T09:00:00Z,25.0270,-80.6810,1.5,41.89,11111222 
ENP,ioos.station.NOAA.NDBC:BOBF1:1,2019-06-04T10:00:00Z,25.0270,-80.6810,1.5,41.99,11111222 
ENP,ioos.station.NOAA.NDBC:BOBF1:1,2019-06-04T11:00:00Z,25.0270,-80.6810,1.5,42.05,11111222 
ENP,ioos.station.NOAA.NDBC:BOBF1:1,2019-06-04T12:00:00Z,25.0270,-80.6810,1.5,42.25,11111222 
ENP,ioos.station.NOAA.NDBC:BOBF1:1,2019-06-04T13:00:00Z,25.0270,-80.6810,1.5,41.42,11111222 
ENP,ioos.station.NOAA.NDBC:BOBF1:1,2019-06-04T17:00:00Z,25.0270,-80.6810,1.5,41.01,11111222 
ENP,ioos.station.NOAA.NDBC:BOBF1:1,2019-06-04T18:00:00Z,25.0270,-80.6810,1.5,40.79,11111222 
ENP,ioos.station.NOAA.NDBC:BOBF1:1,2019-06-04T19:00:00Z,25.0270,-80.6810,1.5,40.92,11111222 
ENP,ioos.station.NOAA.NDBC:BOBF1:1,2019-06-04T20:00:00Z,25.0270,-80.6810,1.5,41.51,11111222 
ENP,ioos.station.NOAA.NDBC:BOBF1:1,2019-06-04T21:00:00Z,25.0270,-80.6810,1.5,41.39,11111222 
ENP,ioos.station.NOAA.NDBC:BOBF1:1,2019-06-04T22:00:00Z,25.0270,-80.6810,1.5,41.42,11111222 
ENP,ioos.station.NOAA.NDBC:BOBF1:1,2019-06-04T23:00:00Z,25.0270,-80.6810,1.5,41.46,11111222 
ENP,ioos.station.NOAA.NDBC:BOBF1:1,2019-06-05T00:00:00Z,25.0270,-80.6810,1.5,41.61,11111222 
ENP,ioos.station.NOAA.NDBC:BOBF1:1,2019-06-05T01:00:00Z,25.0270,-80.6810,1.5,41.73,11111222 
ENP,ioos.station.NOAA.NDBC:BOBF1:1,2019-06-11T11:00:00Z,25.0270,-80.6810,1.5,43.02,11111222 
ENP,ioos.station.NOAA.NDBC:BOBF1:1,2019-06-12T01:00:00Z,25.0270,-80.6810,1.5,43.0,11111222 
ENP,ioos.station.NOAA.NDBC:BOBF1:1,2019-06-13T14:00:00Z,25.0270,-80.6810,1.5,43.59,11111222 
ENP,ioos.station.NOAA.NDBC:BOBF1:1,2019-06-13T15:00:00Z,25.0270,-80.6810,1.5,43.56,11111222 
ENP,ioos.station.NOAA.NDBC:BOBF1:1,2019-06-13T16:00:00Z,25.0270,-80.6810,1.5,43.63,11111222 
ENP,ioos.station.NOAA.NDBC:BOBF1:1,2019-06-13T17:00:00Z,25.0270,-80.6810,1.5,43.78,11111222 
ENP,ioos.station.NOAA.NDBC:BOBF1:1,2019-06-13T18:00:00Z,25.0270,-80.6810,1.5,43.66,11111222 
ENP,ioos.station.NOAA.NDBC:BOBF1:1,2019-06-13T19:00:00Z,25.0270,-80.6810,1.5,43.65,11111222 
ENP,ioos.station.NOAA.NDBC:BOBF1:1,2019-06-13T20:00:00Z,25.0270,-80.6810,1.5,43.78,11111222 
ENP,ioos.station.NOAA.NDBC:BOBF1:1,2019-06-13T21:00:00Z,25.0270,-80.6810,1.5,43.89,11111222 
ENP,ioos.station.NOAA.NDBC:BOBF1:1,2019-06-13T22:00:00Z,25.0270,-80.6810,1.5,43.96,11111222 
ENP,ioos.station.NOAA.NDBC:BOBF1:1,2019-06-14T00:00:00Z,25.0270,-80.6810,1.5,43.79,11111222 
ENP,ioos.station.NOAA.NDBC:BOBF1:1,2019-06-14T02:00:00Z,25.0270,-80.6810,1.5,43.91,11111222 
ENP,ioos.station.NOAA.NDBC:BOBF1:1,2019-06-14T04:00:00Z,25.0270,-80.6810,1.5,44.13,11111222 
ENP,ioos.station.NOAA.NDBC:BOBF1:1,2019-06-14T05:00:00Z,25.0270,-80.6810,1.5,44.12,11111222 
ENP,ioos.station.NOAA.NDBC:BOBF1:1,2019-06-14T06:00:00Z,25.0270,-80.6810,1.5,44.32,11111222 
ENP,ioos.station.NOAA.NDBC:BOBF1:1,2019-06-14T07:00:00Z,25.0270,-80.6810,1.5,44.32,11111222 
ENP,ioos.station.NOAA.NDBC:BOBF1:1,2019-06-14T08:00:00Z,25.0270,-80.6810,1.5,44.2,11111222 
ENP,ioos.station.NOAA.NDBC:BOBF1:1,2019-06-14T09:00:00Z,25.0270,-80.6810,1.5,44.09,11111222 
ENP,ioos.station.NOAA.NDBC:BOBF1:1,2019-06-14T10:00:00Z,25.0270,-80.6810,1.5,44.07,11111222 
ENP,ioos.station.NOAA.NDBC:BOBF1:1,2019-06-14T11:00:00Z,25.0270,-80.6810,1.5,44.05,11111222 
ENP,ioos.station.NOAA.NDBC:BOBF1:1,2019-06-14T12:00:00Z,25.0270,-80.6810,1.5,44.13,11111222 
ENP,ioos.station.NOAA.NDBC:BOBF1:1,2019-06-14T13:00:00Z,25.0270,-80.6810,1.5,44.1,11111222 
ENP,ioos.station.NOAA.NDBC:BOBF1:1,2019-06-14T14:00:00Z,25.0270,-80.6810,1.5,44.0,11111222 
ENP,ioos.station.NOAA.NDBC:BOBF1:1,2019-06-14T15:00:00Z,25.0270,-80.6810,1.5,43.8,11111222 
ENP,ioos.station.NOAA.NDBC:BOBF1:1,2019-06-14T16:00:00Z,25.0270,-80.6810,1.5,43.83,11111222 
ENP,ioos.station.NOAA.NDBC:BOBF1:1,2019-06-14T17:00:00Z,25.0270,-80.6810,1.5,43.84,11111222 
ENP,ioos.station.NOAA.NDBC:BOBF1:1,2019-06-14T18:00:00Z,25.0270,-80.6810,1.5,43.91,11111222 
ENP,ioos.station.NOAA.NDBC:BOBF1:1,2019-06-14T19:00:00Z,25.0270,-80.6810,1.5,44.01,11111222 
ENP,ioos.station.NOAA.NDBC:BOBF1:1,2019-06-14T20:00:00Z,25.0270,-80.6810,1.5,44.01,11111222 
ENP,ioos.station.NOAA.NDBC:BOBF1:1,2019-06-14T21:00:00Z,25.0270,-80.6810,1.5,44.01,11111222 
ENP,ioos.station.NOAA.NDBC:BOBF1:1,2019-06-14T22:00:00Z,25.0270,-80.6810,1.5,43.97,11111222 
ENP,ioos.station.NOAA.NDBC:BOBF1:1,2019-06-14T23:00:00Z,25.0270,-80.6810,1.5,43.95,11111222 
ENP,ioos.station.NOAA.NDBC:BOBF1:1,2019-06-15T00:00:00Z,25.0270,-80.6810,1.5,43.95,11111222 
ENP,ioos.station.NOAA.NDBC:BOBF1:1,2019-06-15T01:00:00Z,25.0270,-80.6810,1.5,43.98,11111222 
ENP,ioos.station.NOAA.NDBC:BOBF1:1,2019-06-15T02:00:00Z,25.0270,-80.6810,1.5,44.01,11111222 
ENP,ioos.station.NOAA.NDBC:BOBF1:1,2019-06-15T04:00:00Z,25.0270,-80.6810,1.5,44.08,11111222 
ENP,ioos.station.NOAA.NDBC:BOBF1:1,2019-06-15T05:00:00Z,25.0270,-80.6810,1.5,44.17,11111222 
ENP,ioos.station.NOAA.NDBC:BOBF1:1,2019-06-15T06:00:00Z,25.0270,-80.6810,1.5,44.08,11111222 
ENP,ioos.station.NOAA.NDBC:BOBF1:1,2019-06-15T07:00:00Z,25.0270,-80.6810,1.5,44.1,11111222 
ENP,ioos.station.NOAA.NDBC:BOBF1:1,2019-06-15T08:00:00Z,25.0270,-80.6810,1.5,44.1,11111222 
ENP,ioos.station.NOAA.NDBC:BOBF1:1,2019-06-15T09:00:00Z,25.0270,-80.6810,1.5,44.11,11111222 
ENP,ioos.station.NOAA.NDBC:BOBF1:1,2019-06-15T10:00:00Z,25.0270,-80.6810,1.5,44.12,11111222 
ENP,ioos.station.NOAA.NDBC:BOBF1:1,2019-06-15T11:00:00Z,25.0270,-80.6810,1.5,44.13,11111222 
ENP,ioos.station.NOAA.NDBC:BOBF1:1,2019-06-15T12:00:00Z,25.0270,-80.6810,1.5,44.13,11111222 
ENP,ioos.station.NOAA.NDBC:BOBF1:1,2019-06-15T13:00:00Z,25.0270,-80.6810,1.5,44.02,11111222 
ENP,ioos.station.NOAA.NDBC:BOBF1:1,2019-06-15T14:00:00Z,25.0270,-80.6810,1.5,44.12,11111222 
ENP,ioos.station.NOAA.NDBC:BOBF1:1,2019-06-15T15:00:00Z,25.0270,-80.6810,1.5,44.11,11111222 
ENP,ioos.station.NOAA.NDBC:BOBF1:1,2019-06-15T16:00:00Z,25.0270,-80.6810,1.5,44.11,11111222 
ENP,ioos.station.NOAA.NDBC:BOBF1:1,2019-06-15T17:00:00Z,25.0270,-80.6810,1.5,44.09,11111222 
ENP,ioos.station.NOAA.NDBC:BOBF1:1,2019-06-15T18:00:00Z,25.0270,-80.6810,1.5,44.0,11111222 
ENP,ioos.station.NOAA.NDBC:BOBF1:1,2019-06-15T19:00:00Z,25.0270,-80.6810,1.5,43.99,11111222 
ENP,ioos.station.NOAA.NDBC:BOBF1:1,2019-06-15T20:00:00Z,25.0270,-80.6810,1.5,44.01,11111222 
ENP,ioos.station.NOAA.NDBC:BOBF1:1,2019-06-15T21:00:00Z,25.0270,-80.6810,1.5,43.99,11111222 
ENP,ioos.station.NOAA.NDBC:BOBF1:1,2019-06-15T22:00:00Z,25.0270,-80.6810,1.5,44.02,11111222 
ENP,ioos.station.NOAA.NDBC:BOBF1:1,2019-06-15T23:00:00Z,25.0270,-80.6810,1.5,44.04,11111222 
ENP,ioos.station.NOAA.NDBC:BOBF1:1,2019-06-16T00:00:00Z,25.0270,-80.6810,1.5,44.02,11111222 
ENP,ioos.station.NOAA.NDBC:BOBF1:1,2019-06-16T01:00:00Z,25.0270,-80.6810,1.5,44.05,11111222 
ENP,ioos.station.NOAA.NDBC:BOBF1:1,2019-06-16T02:00:00Z,25.0270,-80.6810,1.5,44.18,11111222 
ENP,ioos.station.NOAA.NDBC:BOBF1:1,2019-06-16T04:00:00Z,25.0270,-80.6810,1.5,44.16,11111222 
ENP,ioos.station.NOAA.NDBC:BOBF1:1,2019-06-16T05:00:00Z,25.0270,-80.6810,1.5,44.13,11111222 
ENP,ioos.station.NOAA.NDBC:BOBF1:1,2019-06-16T06:00:00Z,25.0270,-80.6810,1.5,44.25,11111222 
ENP,ioos.station.NOAA.NDBC:BOBF1:1,2019-06-16T07:00:00Z,25.0270,-80.6810,1.5,44.27,11111222 
ENP,ioos.station.NOAA.NDBC:BOBF1:1,2019-06-16T08:00:00Z,25.0270,-80.6810,1.5,44.29,11111222 
ENP,ioos.station.NOAA.NDBC:BOBF1:1,2019-06-16T09:00:00Z,25.0270,-80.6810,1.5,44.21,11111222 
ENP,ioos.station.NOAA.NDBC:BOBF1:1,2019-06-16T10:00:00Z,25.0270,-80.6810,1.5,44.16,11111222 
ENP,ioos.station.NOAA.NDBC:BOBF1:1,2019-06-16T11:00:00Z,25.0270,-80.6810,1.5,44.16,11111222 
ENP,ioos.station.NOAA.NDBC:BOBF1:1,2019-06-16T12:00:00Z,25.0270,-80.6810,1.5,44.17,11111222 
ENP,ioos.station.NOAA.NDBC:BOBF1:1,2019-06-16T13:00:00Z,25.0270,-80.6810,1.5,44.18,11111222 
ENP,ioos.station.NOAA.NDBC:BOBF1:1,2019-06-16T14:00:00Z,25.0270,-80.6810,1.5,44.08,11111222 
ENP,ioos.station.NOAA.NDBC:BOBF1:1,2019-06-16T15:00:00Z,25.0270,-80.6810,1.5,44.02,11111222 
ENP,ioos.station.NOAA.NDBC:BOBF1:1,2019-06-16T16:00:00Z,25.0270,-80.6810,1.5,43.85,11111222 
ENP,ioos.station.NOAA.NDBC:BOBF1:1,2019-06-16T17:00:00Z,25.0270,-80.6810,1.5,43.81,11111222 
ENP,ioos.station.NOAA.NDBC:BOBF1:1,2019-06-16T18:00:00Z,25.0270,-80.6810,1.5,43.75,11111222 
ENP,ioos.station.NOAA.NDBC:BOBF1:1,2019-06-16T19:00:00Z,25.0270,-80.6810,1.5,43.37,11111222 
ENP,ioos.station.NOAA.NDBC:BOBF1:1,2019-06-16T20:00:00Z,25.0270,-80.6810,1.5,43.46,11111222 
ENP,ioos.station.NOAA.NDBC:BOBF1:1,2019-06-16T21:00:00Z,25.0270,-80.6810,1.5,43.4,11111222 
ENP,ioos.station.NOAA.NDBC:BOBF1:1,2019-06-16T22:00:00Z,25.0270,-80.6810,1.5,43.42,11111222 
ENP,ioos.station.NOAA.NDBC:BOBF1:1,2019-06-16T23:00:00Z,25.0270,-80.6810,1.5,43.63,11111222 
ENP,ioos.station.NOAA.NDBC:BOBF1:1,2019-06-17T00:00:00Z,25.0270,-80.6810,1.5,43.73,11111222 
ENP,ioos.station.NOAA.NDBC:BOBF1:1,2019-06-17T01:00:00Z,25.0270,-80.6810,1.5,43.83,11111222 
ENP,ioos.station.NOAA.NDBC:BOBF1:1,2019-06-17T02:00:00Z,25.0270,-80.6810,1.5,43.86,11111222 
ENP,ioos.station.NOAA.NDBC:BOBF1:1,2019-06-17T04:00:00Z,25.0270,-80.6810,1.5,43.89,11111222 
ENP,ioos.station.NOAA.NDBC:BOBF1:1,2019-06-17T05:00:00Z,25.0270,-80.6810,1.5,43.66,11111222 
ENP,ioos.station.NOAA.NDBC:BOBF1:1,2019-06-17T06:00:00Z,25.0270,-80.6810,1.5,43.5,11111222 
ENP,ioos.station.NOAA.NDBC:BOBF1:1,2019-06-17T07:00:00Z,25.0270,-80.6810,1.5,43.57,11111222 
ENP,ioos.station.NOAA.NDBC:BOBF1:1,2019-06-17T08:00:00Z,25.0270,-80.6810,1.5,43.76,11111222 
ENP,ioos.station.NOAA.NDBC:BOBF1:1,2019-06-17T09:00:00Z,25.0270,-80.6810,1.5,43.63,11111222 
ENP,ioos.station.NOAA.NDBC:BOBF1:1,2019-06-17T10:00:00Z,25.0270,-80.6810,1.5,43.59,11111222 
ENP,ioos.station.NOAA.NDBC:BOBF1:1,2019-06-17T11:00:00Z,25.0270,-80.6810,1.5,43.62,11111222 
ENP,ioos.station.NOAA.NDBC:BOBF1:1,2019-06-17T12:00:00Z,25.0270,-80.6810,1.5,43.58,11111222 
ENP,ioos.station.NOAA.NDBC:BOBF1:1,2019-06-17T13:00:00Z,25.0270,-80.6810,1.5,43.37,11111222 
ENP,ioos.station.NOAA.NDBC:BOBF1:1,2019-06-17T14:00:00Z,25.0270,-80.6810,1.5,43.06,11111222 
ENP,ioos.station.NOAA.NDBC:BOBF1:1,2019-06-17T15:00:00Z,25.0270,-80.6810,1.5,43.14,11111222 
ENP,ioos.station.NOAA.NDBC:BOBF1:1,2019-06-17T16:00:00Z,25.0270,-80.6810,1.5,43.15,11111222 
ENP,ioos.station.NOAA.NDBC:BOBF1:1,2019-06-17T17:00:00Z,25.0270,-80.6810,1.5,43.41,11111222 
ENP,ioos.station.NOAA.NDBC:BOBF1:1,2019-06-17T18:00:00Z,25.0270,-80.6810,1.5,43.3,11111222 
ENP,ioos.station.NOAA.NDBC:BOBF1:1,2019-06-17T19:00:00Z,25.0270,-80.6810,1.5,43.24,11111222 
ENP,ioos.station.NOAA.NDBC:BOBF1:1,2019-06-17T20:00:00Z,25.0270,-80.6810,1.5,43.27,11111222 
ENP,ioos.station.NOAA.NDBC:BOBF1:1,2019-06-17T21:00:00Z,25.0270,-80.6810,1.5,43.3,11111222 
ENP,ioos.station.NOAA.NDBC:BOBF1:1,2019-06-17T22:00:00Z,25.0270,-80.6810,1.5,43.27,11111222 
ENP,ioos.station.NOAA.NDBC:BOBF1:1,2019-06-17T23:00:00Z,25.0270,-80.6810,1.5,43.23,11111222 
ENP,ioos.station.NOAA.NDBC:BOBF1:1,2019-06-18T01:00:00Z,25.0270,-80.6810,1.5,43.26,11111222 
ENP,ioos.station.NOAA.NDBC:BOBF1:1,2019-06-18T02:00:00Z,25.0270,-80.6810,1.5,43.27,11111222 
ENP,ioos.station.NOAA.NDBC:BOBF1:1,2019-06-18T04:00:00Z,25.0270,-80.6810,1.5,43.2,11111222 
ENP,ioos.station.NOAA.NDBC:BOBF1:1,2019-06-18T05:00:00Z,25.0270,-80.6810,1.5,43.19,11111222 
ENP,ioos.station.NOAA.NDBC:BOBF1:1,2019-06-18T06:00:00Z,25.0270,-80.6810,1.5,43.2,11111222 
ENP,ioos.station.NOAA.NDBC:BOBF1:1,2019-06-18T07:00:00Z,25.0270,-80.6810,1.5,43.21,11111222 
ENP,ioos.station.NOAA.NDBC:BOBF1:1,2019-06-18T08:00:00Z,25.0270,-80.6810,1.5,43.27,11111222 
ENP,ioos.station.NOAA.NDBC:BOBF1:1,2019-06-18T09:00:00Z,25.0270,-80.6810,1.5,43.22,11111222 
ENP,ioos.station.NOAA.NDBC:BOBF1:1,2019-06-18T10:00:00Z,25.0270,-80.6810,1.5,43.2,11111222 
ENP,ioos.station.NOAA.NDBC:BOBF1:1,2019-06-18T11:00:00Z,25.0270,-80.6810,1.5,43.23,11111222 
ENP,ioos.station.NOAA.NDBC:BOBF1:1,2019-06-18T12:00:00Z,25.0270,-80.6810,1.5,43.23,11111222 
ENP,ioos.station.NOAA.NDBC:BOBF1:1,2019-06-18T13:00:00Z,25.0270,-80.6810,1.5,43.27,11111222 
ENP,ioos.station.NOAA.NDBC:BOBF1:1,2019-06-18T14:00:00Z,25.0270,-80.6810,1.5,43.27,11111222 
ENP,ioos.station.NOAA.NDBC:BOBF1:1,2019-06-18T15:00:00Z,25.0270,-80.6810,1.5,43.27,11111222 
ENP,ioos.station.NOAA.NDBC:BOBF1:1,2019-06-18T16:00:00Z,25.0270,-80.6810,1.5,43.26,11111222 
ENP,ioos.station.NOAA.NDBC:BOBF1:1,2019-06-18T17:00:00Z,25.0270,-80.6810,1.5,43.14,11111222 
ENP,ioos.station.NOAA.NDBC:BOBF1:1,2019-06-18T18:00:00Z,25.0270,-80.6810,1.5,43.11,11111222 
ENP,ioos.station.NOAA.NDBC:BOBF1:1,2019-06-18T21:00:00Z,25.0270,-80.6810,1.5,43.01,11111222 
ENP,ioos.station.NOAA.NDBC:BOBF1:1,2019-06-19T00:00:00Z,25.0270,-80.6810,1.5,43.09,11111222 
ENP,ioos.station.NOAA.NDBC:BOBF1:1,2019-06-19T02:00:00Z,25.0270,-80.6810,1.5,43.24,11111222 
ENP,ioos.station.NOAA.NDBC:BOBF1:1,2019-06-19T06:00:00Z,25.0270,-80.6810,1.5,43.27,11111222 
ENP,ioos.station.NOAA.NDBC:BOBF1:1,2019-06-19T09:00:00Z,25.0270,-80.6810,1.5,43.38,11111222 
ENP,ioos.station.NOAA.NDBC:BOBF1:1,2019-06-19T12:00:00Z,25.0270,-80.6810,1.5,43.37,11111222 
ENP,ioos.station.NOAA.NDBC:BOBF1:1,2019-06-19T15:00:00Z,25.0270,-80.6810,1.5,43.32,11111222 
ENP,ioos.station.NOAA.NDBC:BOBF1:1,2019-06-19T18:00:00Z,25.0270,-80.6810,1.5,43.21,11111222 
ENP,ioos.station.NOAA.NDBC:BOBF1:1,2019-06-19T21:00:00Z,25.0270,-80.6810,1.5,43.12,11111222 
ENP,ioos.station.NOAA.NDBC:BOBF1:1,2019-06-20T00:00:00Z,25.0270,-80.6810,1.5,43.18,11111222 
ENP,ioos.station.NOAA.NDBC:BOBF1:1,2019-06-20T02:00:00Z,25.0270,-80.6810,1.5,43.21,11111222 
ENP,ioos.station.NOAA.NDBC:BOBF1:1,2019-06-20T06:00:00Z,25.0270,-80.6810,1.5,43.27,11111222 
ENP,ioos.station.NOAA.NDBC:BOBF1:1,2019-06-20T09:00:00Z,25.0270,-80.6810,1.5,43.38,11111222 
ENP,ioos.station.NOAA.NDBC:BOBF1:1,2019-06-20T12:00:00Z,25.0270,-80.6810,1.5,43.5,11111222 
ENP,ioos.station.NOAA.NDBC:BOBF1:1,2019-06-20T15:00:00Z,25.0270,-80.6810,1.5,43.47,11111222 
ENP,ioos.station.NOAA.NDBC:BOBF1:1,2019-06-20T18:00:00Z,25.0270,-80.6810,1.5,43.34,11111222 
ENP,ioos.station.NOAA.NDBC:BOBF1:1,2019-06-20T21:00:00Z,25.0270,-80.6810,1.5,43.32,11111222 
ENP,ioos.station.NOAA.NDBC:BOBF1:1,2019-06-21T00:00:00Z,25.0270,-80.6810,1.5,43.31,11111222 
ENP,ioos.station.NOAA.NDBC:BOBF1:1,2019-06-21T02:00:00Z,25.0270,-80.6810,1.5,43.33,11111222 
ENP,ioos.station.NOAA.NDBC:BOBF1:1,2019-06-21T06:00:00Z,25.0270,-80.6810,1.5,43.46,11111222 
ENP,ioos.station.NOAA.NDBC:BOBF1:1,2019-06-21T09:00:00Z,25.0270,-80.6810,1.5,43.56,11111222 
ENP,ioos.station.NOAA.NDBC:BOBF1:1,2019-06-21T12:00:00Z,25.0270,-80.6810,1.5,43.44,11111222 
ENP,ioos.station.NOAA.NDBC:BOBF1:1,2019-06-21T15:00:00Z,25.0270,-80.6810,1.5,43.4,11111222 
ENP,ioos.station.NOAA.NDBC:BOBF1:1,2019-06-21T18:00:00Z,25.0270,-80.6810,1.5,43.27,11111222 
ENP,ioos.station.NOAA.NDBC:BOBF1:1,2019-06-21T21:00:00Z,25.0270,-80.6810,1.5,43.42,11111222 
ENP,ioos.station.NOAA.NDBC:BOBF1:1,2019-06-22T00:00:00Z,25.0270,-80.6810,1.5,43.46,11111222 
ENP,ioos.station.NOAA.NDBC:BOBF1:1,2019-06-22T02:00:00Z,25.0270,-80.6810,1.5,43.45,11111222 
ENP,ioos.station.NOAA.NDBC:BOBF1:1,2019-06-22T06:00:00Z,25.0270,-80.6810,1.5,43.51,11111222 
ENP,ioos.station.NOAA.NDBC:BOBF1:1,2019-06-22T09:00:00Z,25.0270,-80.6810,1.5,43.5,11111222 
ENP,ioos.station.NOAA.NDBC:BOBF1:1,2019-06-22T12:00:00Z,25.0270,-80.6810,1.5,43.65,11111222 
ENP,ioos.station.NOAA.NDBC:BOBF1:1,2019-06-22T15:00:00Z,25.0270,-80.6810,1.5,43.52,11111222 
ENP,ioos.station.NOAA.NDBC:BOBF1:1,2019-06-22T18:00:00Z,25.0270,-80.6810,1.5,43.43,11111222 
ENP,ioos.station.NOAA.NDBC:BOBF1:1,2019-06-22T21:00:00Z,25.0270,-80.6810,1.5,43.48,11111222 
ENP,ioos.station.NOAA.NDBC:BOBF1:1,2019-06-23T00:00:00Z,25.0270,-80.6810,1.5,43.53,11111222 
ENP,ioos.station.NOAA.NDBC:BOBF1:1,2019-06-23T02:00:00Z,25.0270,-80.6810,1.5,43.54,11111222 
ENP,ioos.station.NOAA.NDBC:BOBF1:1,2019-06-23T06:00:00Z,25.0270,-80.6810,1.5,43.56,11111222 
ENP,ioos.station.NOAA.NDBC:BOBF1:1,2019-06-23T09:00:00Z,25.0270,-80.6810,1.5,43.53,11111222 
ENP,ioos.station.NOAA.NDBC:BOBF1:1,2019-06-23T12:00:00Z,25.0270,-80.6810,1.5,43.68,11111222 
ENP,ioos.station.NOAA.NDBC:BOBF1:1,2019-06-23T15:00:00Z,25.0270,-80.6810,1.5,43.48,11111222 
ENP,ioos.station.NOAA.NDBC:BOBF1:1,2019-06-23T18:00:00Z,25.0270,-80.6810,1.5,43.53,11111222 
ENP,ioos.station.NOAA.NDBC:BOBF1:1,2019-06-23T21:00:00Z,25.0270,-80.6810,1.5,43.57,11111222 
ENP,ioos.station.NOAA.NDBC:BOBF1:1,2019-06-24T00:00:00Z,25.0270,-80.6810,1.5,43.66,11111222 
ENP,ioos.station.NOAA.NDBC:BOBF1:1,2019-06-24T02:00:00Z,25.0270,-80.6810,1.5,43.69,11111222 
ENP,ioos.station.NOAA.NDBC:BOBF1:1,2019-06-24T06:00:00Z,25.0270,-80.6810,1.5,43.82,11111222 
ENP,ioos.station.NOAA.NDBC:BOBF1:1,2019-06-24T09:00:00Z,25.0270,-80.6810,1.5,43.88,11111222 
ENP,ioos.station.NOAA.NDBC:BOBF1:1,2019-06-24T12:00:00Z,25.0270,-80.6810,1.5,43.92,11111222 
ENP,ioos.station.NOAA.NDBC:BOBF1:1,2019-06-24T15:00:00Z,25.0270,-80.6810,1.5,43.99,11111222 
ENP,ioos.station.NOAA.NDBC:BOBF1:1,2019-06-24T18:00:00Z,25.0270,-80.6810,1.5,43.89,11111222 
ENP,ioos.station.NOAA.NDBC:BOBF1:1,2019-06-24T21:00:00Z,25.0270,-80.6810,1.5,44.18,11111222 
ENP,ioos.station.NOAA.NDBC:BOBF1:1,2019-06-24T22:00:00Z,25.0270,-80.6810,1.5,44.16,11111222 
ENP,ioos.station.NOAA.NDBC:BOBF1:1,2019-06-24T23:00:00Z,25.0270,-80.6810,1.5,44.15,11111222 